Flag for Israel Weather past 2 weeks in Hadera, Israel

Now
77 °F

Passing clouds.


Feels Like: 79 °F
Forecast: 73 / 83 °F
Wind: 6 mph from Northwest

Location: Dov Airport

Current Time: Jul 3, 2015 at 9:10:36 PM

Latest Report: Jul 3, 2015 at 7:50 PM


Visibility: N/A

Pressure: 29.86 "Hg

Humidity: 74%

Dew point: 68 °F

Location of HaderaLocation

Historic Weather in Hadera — Graph

°F

Hadera temperature yesterday

Maximum temperature yesterday: 82 °F (at 12:50 PM)
Minimum temperature yesterday: 77 °F (at 4:50 AM)
Average temperature yesterday: 79 °F

Past Weeks' High & Low Weather Summary

 TemperatureHumidityPressure
High84 °F (Jun 19, 9:50 AM)83% (Jun 27, 6:00 AM)29.95 "Hg (Jun 27, 6:00 AM)
Low72 °F (Jun 29, 5:50 AM)27% (Jun 27, 8:50 PM)29.56 "Hg (Jun 27, 10:50 PM)
Average78 °F65%29.82 "Hg
* Reported Jun 18 7:50 PM — Jul 3 7:50 PM, Hadera, Weather by CustomWeather, © 2015

Note: Actual official high and low records may vary slightly from our data, if they occured in-between our weather recording intervals... More about our weather records

Advertising

Hadera weather history for previous 24 hours

 ConditionsComfort  
Time TempWeatherWind HumidityBarometerVisibility
7:50 PM
Fri, Jul 3
77 °FPassing clouds.6 mph74%29.86 "HgN/A
6:50 PM79 °FPassing clouds.8 mph70%29.86 "HgN/A
5:50 PM81 °FPassing clouds.9 mph66%29.86 "HgN/A
4:50 PM82 °FPassing clouds.10 mph62%29.86 "HgN/A
3:50 PM82 °FPassing clouds.10 mph62%29.86 "HgN/A
2:50 PM82 °FSunny.9 mph62%29.86 "Hg10 mi
1:50 PM82 °FScattered clouds.10 mph62%29.89 "HgN/A
12:50 PM81 °FPassing clouds.10 mph62%29.89 "HgN/A
11:50 AM81 °FScattered clouds.12 mph62%29.89 "HgN/A
10:50 AM81 °FScattered clouds.10 mph62%29.89 "HgN/A
9:50 AM79 °FScattered clouds.10 mph65%29.89 "HgN/A
8:50 AM79 °FScattered clouds.8 mph65%29.86 "HgN/A
7:50 AM75 °FScattered clouds.7 mph74%29.86 "HgN/A
6:50 AM75 °FScattered clouds.5 mph78%29.86 "HgN/A
5:50 AM75 °FPassing clouds.5 mph74%29.86 "HgN/A
10:50 PM
Thu, Jul 2
77 °FPassing clouds.7 mph79%29.89 "HgN/A
9:50 PM77 °FPassing clouds.7 mph79%29.86 "HgN/A
Weather by CustomWeather, © 2015

See weather overviewHow to use our weather pages